This is the latest recevied weather packets stored in our database for station/object HB9FHL-13. If no packets are shown the sender has not sent any weather packets the latest 10 day(s).
| Time | Temp. | Humidity | Pressure | Rain* | Wind** | Luminosity | Snow |
|---|---|---|---|---|---|---|---|
| 1778074191 | 10° C | - | 1011.5 hPa | 8.13 mm | - | - | - |
| 1778073891 | 10° C | - | 1010.1 hPa | 7.87 mm | - | - | - |
| 1778073591 | 10° C | - | 1009.8 hPa | 7.62 mm | - | - | - |
| 1778073290 | 10.56° C | - | 1005.8 hPa | 7.37 mm | - | - | - |
| 1778072988 | 8.33° C | - | 998.4 hPa | 7.11 mm | - | - | - |
| 1778072687 | 9.44° C | - | 999.1 hPa | 6.86 mm | - | - | - |
| 1778072387 | 8.33° C | - | 1017.3 hPa | 6.35 mm | - | - | - |
| 1778072087 | 9.44° C | - | 1011.6 hPa | 5.59 mm | - | - | - |
| 1778071786 | 8.89° C | - | 1003.8 hPa | 4.83 mm | - | - | - |
| 1778071486 | 10° C | - | 1006 hPa | 4.06 mm | - | - | - |
| 1778071185 | 10° C | - | 1004.4 hPa | 3.56 mm | - | - | - |
| 1778070885 | 10.56° C | - | 996.4 hPa | 3.05 mm | - | - | - |
| 1778070584 | 9.44° C | - | 1002.9 hPa | 2.29 mm | - | - | - |
| 1778070283 | 9.44° C | - | 1006.9 hPa | 1.52 mm | - | - | - |
| 1778069983 | 11.11° C | - | 1005.6 hPa | 0.76 mm | - | - | - |
| 1778069684 | 10.56° C | - | 1004.7 hPa | 0.51 mm | - | - | - |
| 1778069382 | 11.11° C | - | 1009.3 hPa | 0.51 mm | - | - | - |
| 1778069081 | 11.11° C | - | 1004.8 hPa | 0.25 mm | - | - | - |
| 1778068781 | 10.56° C | - | 1005.2 hPa | 0.25 mm | - | - | - |
| 1778068478 | 11.11° C | - | 1004.8 hPa | 0.25 mm | - | - | - |
| 1778068177 | 11.11° C | - | 1005.2 hPa | 0 mm | - | - | - |
| 1778067877 | 11.11° C | - | 1005.2 hPa | 0 mm | - | - | - |
| 1778067576 | 11.67° C | - | 1006.7 hPa | 0 mm | - | - | - |
| 1778067278 | 11.67° C | - | 1006.9 hPa | 0 mm | - | - | - |
| 1778066977 | 11.67° C | - | 1001.9 hPa | 0 mm | - | - | - |
* Rain since midnight (hover to see other rain measurements)
** Current wind speed in m/s (hover to see current wind gust speed)